TimeEST,TemperatureF,Dew PointF,Humidity,Sea Level PressureIn,VisibilityMPH,Wind Direction,Wind SpeedMPH,Gust SpeedMPH,PrecipitationIn,Events,Conditions,WindDirDegrees,DateUTC
12:15 AM,53.6,46.4,77,29.57,10.0,SSW,13.8,23.0,N/A,,Clear,210,2012-02-24 05:15:00
12:35 AM,53.6,46.4,77,29.57,10.0,SW,13.8,20.7,N/A,,Clear,220,2012-02-24 05:35:00
12:55 AM,53.6,46.4,77,29.57,10.0,SW,15.0,20.7,N/A,,Clear,220,2012-02-24 05:55:00
1:15 AM,53.6,46.4,77,29.57,10.0,SW,16.1,20.7,N/A,Thunderstorm,Clear,230,2012-02-24 06:15:00
1:35 AM,53.6,46.4,77,29.57,10.0,SW,16.1,21.9,N/A,,Clear,230,2012-02-24 06:35:00
1:55 AM,53.6,46.4,77,29.56,10.0,SW,17.3,25.3,N/A,,Clear,230,2012-02-24 06:55:00
2:15 AM,53.6,46.4,77,29.55,10.0,WSW,16.1,23.0,N/A,,Scattered Clouds,240,2012-02-24 07:15:00
2:35 AM,53.6,46.4,77,29.54,10.0,WSW,17.3,21.9,N/A,,Scattered Clouds,240,2012-02-24 07:35:00
2:55 AM,53.6,46.4,77,29.54,10.0,WSW,19.6,25.3,N/A,,Mostly Cloudy,250,2012-02-24 07:55:00
3:15 AM,55.4,46.4,72,29.54,10.0,WSW,18.4,24.2,N/A,,Mostly Cloudy,250,2012-02-24 08:15:00
3:35 AM,55.4,46.4,72,29.54,10.0,WSW,15.0,24.2,N/A,,Overcast,250,2012-02-24 08:35:00
3:55 AM,55.4,46.4,72,29.54,10.0,WSW,13.8,23.0,N/A,,Overcast,250,2012-02-24 08:55:00
4:15 AM,55.4,46.4,72,29.54,10.0,WSW,16.1,21.9,N/A,,Overcast,240,2012-02-24 09:15:00
4:36 AM,53.6,48.2,82,29.53,10.0,WSW,17.3,-,N/A,,Scattered Clouds,250,2012-02-24 09:36:00
4:55 AM,55.4,48.2,77,29.54,10.0,WSW,17.3,25.3,N/A,,Clear,240,2012-02-24 09:55:00
5:16 AM,55.4,48.2,77,29.54,10.0,WSW,17.3,24.2,N/A,,Scattered Clouds,240,2012-02-24 10:16:00
5:36 AM,55.4,48.2,77,29.56,10.0,WSW,16.1,24.2,N/A,,Overcast,250,2012-02-24 10:36:00
5:56 AM,55.4,48.2,77,29.56,10.0,West,12.7,20.7,N/A,,Overcast,260,2012-02-24 10:56:00
6:15 AM,51.8,48.2,88,29.56,7.0,North,5.8,-,N/A,Rain,Rain,350,2012-02-24 11:15:00
6:35 AM,50.0,48.2,94,29.58,10.0,WNW,8.1,-,0.01,Rain,Light Rain,300,2012-02-24 11:35:00
6:55 AM,50.0,48.2,94,29.58,10.0,West,11.5,16.1,N/A,Rain-Thunderstorm,Light Thunderstorms and Rain,260,2012-02-24 11:55:00
7:15 AM,51.8,48.2,88,29.58,10.0,West,19.6,26.5,N/A,Rain,Light Rain,260,2012-02-24 12:15:00
7:35 AM,51.8,50.0,94,29.59,10.0,WSW,18.4,24.2,N/A,,Overcast,250,2012-02-24 12:35:00
7:55 AM,51.8,50.0,94,29.59,10.0,WSW,17.3,25.3,N/A,,Mostly Cloudy,250,2012-02-24 12:55:00
8:15 AM,51.8,51.8,100,29.59,10.0,WSW,18.4,-,N/A,,Scattered Clouds,240,2012-02-24 13:15:00
8:35 AM,53.6,51.8,94,29.60,10.0,WSW,20.7,28.8,N/A,,Scattered Clouds,250,2012-02-24 13:35:00
8:55 AM,53.6,51.8,94,29.60,10.0,WSW,17.3,23.0,N/A,,Overcast,240,2012-02-24 13:55:00
9:56 AM,55.4,51.8,88,29.58,10.0,SW,15.0,26.5,N/A,,Mostly Cloudy,230,2012-02-24 14:56:00
10:15 AM,55.4,51.8,88,29.58,10.0,WSW,15.0,27.6,N/A,,Overcast,240,2012-02-24 15:15:00
10:35 AM,57.2,51.8,82,29.57,10.0,SW,16.1,24.2,N/A,,Overcast,230,2012-02-24 15:35:00
10:55 AM,57.2,51.8,82,29.56,10.0,WSW,19.6,26.5,N/A,,Overcast,240,2012-02-24 15:55:00
11:15 AM,60.8,51.8,72,29.55,10.0,SW,19.6,27.6,N/A,Thunderstorm,Mostly Cloudy,230,2012-02-24 16:15:00
11:35 AM,60.8,48.2,63,29.54,10.0,WSW,23.0,29.9,N/A,Thunderstorm,Mostly Cloudy,240,2012-02-24 16:35:00
11:55 AM,59.0,48.2,67,29.55,10.0,WSW,21.9,36.8,N/A,Thunderstorm,Mostly Cloudy,240,2012-02-24 16:55:00
12:15 PM,55.4,48.2,77,29.55,7.0,West,21.9,31.1,N/A,Rain-Thunderstorm,Rain,270,2012-02-24 17:15:00
12:35 PM,51.8,50.0,94,29.56,4.0,West,18.4,31.1,0.01,Rain,Rain,260,2012-02-24 17:35:00
12:55 PM,51.8,51.8,100,29.51,4.0,West,12.7,27.6,N/A,,Light Drizzle,260,2012-02-24 17:55:00
1:15 PM,51.8,51.8,100,29.51,5.0,West,15.0,-,N/A,,Overcast,270,2012-02-24 18:15:00
1:35 PM,51.8,51.8,100,29.52,7.0,West,17.3,23.0,N/A,Rain,Light Rain,270,2012-02-24 18:35:00
1:55 PM,51.8,50.0,94,29.51,1.2,West,24.2,32.2,0.12,Rain,Heavy Rain,260,2012-02-24 18:55:00
2:15 PM,50.0,48.2,94,29.53,0.2,WSW,27.6,36.8,0.16,Rain,Rain,250,2012-02-24 19:15:00
2:35 PM,48.2,48.2,100,29.52,10.0,West,20.7,34.5,0.16,,Overcast,260,2012-02-24 19:35:00
2:55 PM,46.4,44.6,93,29.53,5.0,West,24.2,36.8,0.01,Rain,Rain,270,2012-02-24 19:55:00
3:15 PM,42.8,42.8,100,29.55,7.0,West,28.8,43.7,0.03,,Drizzle,270,2012-02-24 20:15:00
3:35 PM,42.8,39.2,87,29.56,10.0,West,25.3,41.4,0.03,,Overcast,270,2012-02-24 20:35:00
3:55 PM,42.8,37.4,81,29.54,10.0,West,27.6,34.5,N/A,,Overcast,260,2012-02-24 20:55:00
4:15 PM,42.8,37.4,81,29.52,10.0,West,31.1,38.0,N/A,,Mostly Cloudy,270,2012-02-24 21:15:00
4:55 PM,42.8,35.6,76,29.52,10.0,West,25.3,38.0,N/A,,Overcast,270,2012-02-24 21:55:00
5:15 PM,39.2,35.6,87,29.53,7.0,West,28.8,39.1,N/A,,Drizzle,280,2012-02-24 22:15:00
5:35 PM,37.4,32.0,81,29.53,10.0,West,27.6,44.9,N/A,,Mostly Cloudy,280,2012-02-24 22:35:00
5:55 PM,37.4,26.6,65,29.53,10.0,West,32.2,49.5,N/A,,Scattered Clouds,270,2012-02-24 22:55:00
6:15 PM,37.4,24.8,60,29.54,10.0,West,27.6,50.6,N/A,,Scattered Clouds,280,2012-02-24 23:15:00
6:35 PM,35.6,24.8,65,29.55,10.0,West,32.2,48.3,N/A,,Mostly Cloudy,280,2012-02-24 23:35:00
6:55 PM,33.8,23.0,65,29.57,10.0,WNW,28.8,46.0,N/A,,Overcast,290,2012-02-24 23:55:00
7:15 PM,32.0,21.2,64,29.60,10.0,West,32.2,56.4,N/A,,Overcast,280,2012-02-25 00:15:00
7:35 PM,30.2,21.2,69,29.62,10.0,WNW,27.6,44.9,N/A,,Overcast,290,2012-02-25 00:35:00
7:55 PM,30.2,19.4,64,29.62,10.0,West,29.9,43.7,N/A,,Overcast,280,2012-02-25 00:55:00
8:15 PM,30.2,19.4,64,29.63,10.0,West,28.8,54.1,N/A,,Overcast,280,2012-02-25 01:15:00
8:35 PM,30.2,21.2,69,29.65,10.0,West,31.1,48.3,N/A,,Overcast,280,2012-02-25 01:35:00
8:55 PM,30.2,21.2,69,29.66,10.0,West,27.6,38.0,N/A,,Overcast,280,2012-02-25 01:55:00
9:15 PM,30.2,21.2,69,29.67,10.0,West,27.6,39.1,N/A,,Overcast,270,2012-02-25 02:15:00
9:36 PM,28.4,24.8,86,29.68,2.0,West,24.2,39.1,N/A,Snow,Light Snow,280,2012-02-25 02:36:00
9:55 PM,26.6,23.0,86,29.70,10.0,WNW,25.3,38.0,N/A,,Overcast,290,2012-02-25 02:55:00
10:15 PM,26.6,19.4,74,29.69,10.0,WNW,27.6,41.4,N/A,,Overcast,290,2012-02-25 03:15:00
10:35 PM,26.6,19.4,74,29.70,10.0,West,26.5,39.1,N/A,,Overcast,280,2012-02-25 03:35:00
10:56 PM,26.6,19.4,74,29.70,10.0,West,23.0,42.6,N/A,,Overcast,280,2012-02-25 03:56:00
11:15 PM,26.6,21.2,80,29.70,4.0,West,25.3,34.5,N/A,Snow,Light Snow,280,2012-02-25 04:15:00
11:35 PM,24.8,21.2,86,29.70,1.2,WNW,24.2,40.3,N/A,Snow,Light Snow,290,2012-02-25 04:35:00
11:55 PM,24.8,21.2,86,29.70,10.0,WNW,20.7,29.9,N/A,,Overcast,290,2012-02-25 04:55:00